FW0735 Weather Reports


Display with metric or nautical units.
time (UTC)temp
F
wind
direction
speed
MPH
gust
MPH
rain 1hr
in
rain 24hr
in
rain mn
in
humidity
%
barometer
mb
20260507192505 65 327 6.0 13.0 0.00 0.00 0.00 65 1018.4
20260507192014 65 302 5.0 13.0 0.00 0.00 0.00 65 1018.4
20260507191520 65 302 6.0 13.0 0.00 0.00 0.00 66 1018.4
20260507191007 65 344 4.0 9.0 0.00 0.00 0.00 66 1018.4
20260507190510 65 314 5.0 10.0 0.00 0.00 0.00 66 1018.4
20260507190027 65 328 4.0 10.0 0.00 0.00 0.00 66 1018.3
20260507185509 65 312 5.0 10.0 0.00 0.00 0.00 65 1018.4
20260507185011 65 323 4.0 10.0 0.00 0.00 0.00 65 1018.3
20260507184525 66 304 4.0 8.0 0.00 0.00 0.00 65 1018.3
20260507184007 66 327 3.0 7.0 0.00 0.00 0.00 65 1018.2
20260507183504 66 317 2.0 7.0 0.00 0.00 0.00 65 1018.3
20260507183040 66 322 3.0 6.0 0.00 0.00 0.00 65 1018.3
20260507182505 66 330 2.0 10.0 0.00 0.00 0.00 65 1018.2
20260507182009 66 302 2.0 10.0 0.00 0.00 0.00 65 1018.2
20260507181515 66 317 4.0 10.0 0.00 0.00 0.00 65 1018.2
20260507181005 66 325 5.0 10.0 0.00 0.00 0.00 65 1018.2
20260507180511 66 18 4.0 8.0 0.00 0.00 0.00 66 1018.1
20260507180021 66 356 2.0 7.0 0.00 0.00 0.00 67 1018.0
20260507175511 66 23 2.0 8.0 0.00 0.00 0.00 70 1018.0
20260507175007 66 7 3.0 8.0 0.00 0.00 0.00 70 1018.0
20260507174523 66 317 3.0 7.0 0.00 0.00 0.00 71 1017.9
20260507174009 66 323 3.0 7.0 0.00 0.00 0.00 72 1017.9
20260507173509 65 303 4.0 6.0 0.00 0.00 0.00 73 1017.9
20260507173031 65 283 5.0 7.0 0.00 0.00 0.00 72 1017.8
20260507172509 66 297 5.0 9.0 0.00 0.00 0.00 72 1017.9
20260507172006 66 298 5.0 10.0 0.00 0.00 0.00 73 1017.9
20260507171511 66 264 8.0 10.0 0.00 0.00 0.00 72 1017.9
20260507171008 66 249 7.0 10.0 0.00 0.00 0.00 72 1017.9
20260507170507 66 249 7.0 8.0 0.00 0.00 0.00 70 1017.9
20260507170017 66 253 5.0 6.0 0.00 0.00 0.00 70 1017.8
20260507165510 66 243 5.0 7.0 0.00 0.00 0.00 70 1017.7
20260507165014 66 238 4.0 8.0 0.00 0.00 0.00 70 1017.6
20260507164524 66 232 6.0 10.0 0.00 0.00 0.00 70 1017.7
20260507164010 67 233 6.0 10.0 0.00 0.00 0.00 69 1017.7
20260507163507 67 245 8.0 10.0 0.00 0.00 0.00 68 1017.8
20260507163028 67 223 7.0 10.0 0.00 0.00 0.00 67 1017.8
20260507162510 68 232 7.0 9.0 0.00 0.00 0.00 66 1017.7
20260507162018 68 210 5.0 10.0 0.00 0.00 0.00 64 1017.7
20260507161527 69 203 7.0 10.0 0.00 0.00 0.00 63 1017.7
20260507161009 70 175 5.0 8.0 0.00 0.00 0.00 61 1017.6
20260507160529 70 248 5.0 9.0 0.00 0.00 0.00 59 1017.6
20260507160015 70 219 7.0 9.0 0.00 0.00 0.00 60 1017.6
20260507155509 70 248 6.0 9.0 0.00 0.00 0.00 60 1017.6
20260507155011 70 221 7.0 9.0 0.00 0.00 0.00 59 1017.6
20260507154520 70 213 6.0 9.0 0.00 0.00 0.00 60 1017.5
20260507154010 70 247 7.0 9.0 0.00 0.00 0.00 58 1017.5
20260507153507 70 190 5.0 9.0 0.00 0.00 0.00 59 1017.6
20260507153031 70 235 7.0 11.0 0.00 0.00 0.00 58 1017.6
20260507152512 70 250 7.0 11.0 0.00 0.00 0.00 58 1017.5
20260507152007 70 233 7.0 11.0 0.00 0.00 0.00 57 1017.6
20260507151526 71 220 7.0 9.0 0.00 0.00 0.00 57 1017.7
20260507151010 71 206 4.0 9.0 0.00 0.00 0.00 53 1017.6
20260507150513 71 159 6.0 10.0 0.00 0.00 0.00 53 1017.6
20260507150026 71 182 6.0 10.0 0.00 0.00 0.00 54 1017.6
20260507145507 71 214 8.0 10.0 0.00 0.00 0.00 53 1017.6
20260507145005 71 131 3.0 6.0 0.00 0.00 0.00 52 1017.6
20260507144520 72 210 2.0 7.0 0.00 0.00 0.00 52 1017.7
20260507144007 72 207 5.0 7.0 0.00 0.00 0.00 51 1017.6
20260507143510 71 180 4.0 7.0 0.00 0.00 0.00 51 1017.7
20260507143026 71 143 5.0 10.0 0.00 0.00 0.00 51 1017.7
20260507142508 71 227 7.0 10.0 0.00 0.00 0.00 51 1017.8
20260507142010 71 205 5.0 8.0 0.00 0.00 0.00 52 1017.8
20260507141525 71 210 5.0 9.0 0.00 0.00 0.00 51 1017.8
20260507141009 71 196 5.0 10.0 0.00 0.00 0.00 51 1017.8
20260507140512 71 195 6.0 12.0 0.00 0.00 0.00 52 1017.8
20260507140029 71 214 8.0 12.0 0.00 0.00 0.00 53 1017.8
20260507135510 71 159 5.0 11.0 0.00 0.00 0.00 54 1017.9
20260507135015 71 132 7.0 12.0 0.00 0.00 0.00 56 1018.0
20260507134530 70 155 7.0 12.0 0.00 0.00 0.00 53 1018.0
20260507134009 70 137 8.0 12.0 0.00 0.00 0.00 58 1018.0
20260507133515 69 143 7.0 14.0 0.00 0.00 0.00 61 1017.9
20260507133019 69 139 9.0 14.0 0.00 0.00 0.00 60 1018.0
20260507132507 69 155 9.0 14.0 0.00 0.00 0.00 62 1018.1
20260507132009 70 137 10.0 13.0 0.00 0.00 0.00 59 1018.1
20260507131533 71 162 8.0 10.0 0.00 0.00 0.00 54 1018.2
20260507131009 70 215 6.0 12.0 0.00 0.00 0.00 55 1018.1
20260507130510 70 180 8.0 12.0 0.00 0.00 0.00 56 1018.2
20260507130030 70 188 7.0 13.0 0.00 0.00 0.00 54 1018.2
20260507125511 70 201 8.0 14.0 0.00 0.00 0.00 56 1018.3
20260507125011 69 219 8.0 14.0 0.00 0.00 0.00 57 1018.3
20260507124532 69 169 11.0 14.0 0.00 0.00 0.00 60 1018.3
20260507124016 69 148 11.0 14.0 0.00 0.00 0.00 58 1018.4
20260507123516 69 132 10.0 14.0 0.00 0.00 0.00 59 1018.4
20260507123030 68 139 10.0 14.0 0.00 0.00 0.00 64 1018.5
20260507122512 68 140 10.0 14.0 0.00 0.00 0.00 61 1018.5
20260507122010 68 129 9.0 15.0 0.00 0.00 0.00 63 1018.5
20260507121519 67 136 11.0 15.0 0.00 0.00 0.00 65 1018.5
20260507121016 68 144 10.0 15.0 0.00 0.00 0.00 64 1018.5
20260507120508 68 134 10.0 15.0 0.00 0.00 0.00 62 1018.5
20260507115513 69 132 10.0 14.0 0.00 0.00 0.00 53 1018.5
20260507115016 69 189 9.0 13.0 0.00 0.00 0.00 55 1018.6
20260507114529 69 170 6.0 16.0 0.00 0.00 0.00 54 1018.6
20260507114010 68 163 7.0 16.0 0.00 0.00 0.00 58 1018.7
20260507113510 68 160 9.0 14.0 0.00 0.00 0.00 61 1018.8
20260507113028 68 136 9.0 14.0 0.00 0.00 0.00 64 1018.9
20260507112508 68 143 10.0 14.0 0.00 0.00 0.00 64 1018.9
20260507112014 68 174 9.0 14.0 0.00 0.00 0.00 64 1018.9
20260507111530 68 125 11.0 14.0 0.00 0.00 0.00 63 1018.8
20260507110509 68 126 8.0 12.0 0.00 0.00 0.00 64 1018.8
20260507110022 67 140 10.0 13.0 0.00 0.00 0.00 62 1018.8
20260507105509 67 142 9.0 13.0 0.00 0.00 0.00 64 1018.8
20260507105016 67 125 10.0 13.0 0.00 0.00 0.00 63 1018.8
20260507104528 67 145 9.0 13.0 0.00 0.00 0.00 63 1018.8
20260507102509 68 130 11.0 13.0 0.00 0.00 0.00 64 1018.8
20260507102015 67 136 9.0 12.0 0.00 0.00 0.00 63 1018.8
20260507101552 68 154 9.0 14.0 0.00 0.00 0.00 63 1018.8
20260507101011 68 141 10.0 14.0 0.00 0.00 0.00 62 1018.7
20260507100510 67 141 9.0 13.0 0.00 0.00 0.00 63 1018.8
20260507095510 67 138 9.0 13.0 0.00 0.00 0.00 60 1019.0
20260507095005 67 139 9.0 14.0 0.00 0.00 0.00 60 1019.1
20260507094003 67 143 10.0 14.0 0.00 0.00 0.00 61 1019.0
20260507093516 68 146 10.0 13.0 0.00 0.00 0.00 61 1019.2
20260507093007 67 127 10.0 13.0 0.00 0.00 0.00 61 1019.2
20260507091530 67 124 12.0 16.0 0.00 0.00 0.00 60 1019.0
20260507085003 67 127 13.0 15.0 0.00 0.00 0.00 63 1019.2
20260507084503 67 124 12.0 17.0 0.00 0.00 0.00 59 1019.2
20260507084002 67 136 10.0 17.0 0.00 0.00 0.00 63 1019.2
20260507083503 66 109 11.0 16.0 0.00 0.00 0.00 63 1019.1
20260507082005 67 143 11.0 15.0 0.00 0.00 0.00 64 1019.2
20260507081003 67 117 10.0 14.0 0.00 0.00 0.00 64 1019.3
20260507080515 67 134 9.0 13.0 0.00 0.00 0.00 62 1019.4
20260507080037 67 114 8.0 14.0 0.00 0.00 0.00 57 1019.4
20260507075506 67 99 9.0 14.0 0.00 0.00 0.00 58 1019.4
20260507075014 67 127 9.0 12.0 0.00 0.00 0.00 56 1019.3
20260507074516 67 86 7.0 12.0 0.00 0.00 0.00 57 1019.2
20260507074003 67 84 6.0 11.0 0.00 0.00 0.00 58 1019.2
20260507073503 67 145 7.0 12.0 0.00 0.00 0.00 59 1019.3
20260507072503 67 62 6.0 11.0 0.00 0.00 0.00 66 1019.3
20260507072002 67 131 7.0 11.0 0.00 0.00 0.00 66 1019.3
20260507071507 67 119 8.0 11.0 0.00 0.00 0.00 64 1019.2
20260507071003 68 102 4.0 7.0 0.00 0.00 0.00 65 1019.2
20260507070503 67 77 5.0 8.0 0.00 0.00 0.00 63 1019.2
20260507070012 67 115 4.0 8.0 0.00 0.00 0.00 62 1019.1
20260507065505 67 136 4.0 8.0 0.00 0.00 0.00 63 1019.1
20260507065012 67 122 5.0 8.0 0.00 0.00 0.00 63 1019.2
20260507064515 66 84 4.0 8.0 0.00 0.00 0.00 62 1019.2
20260507064007 67 105 4.0 6.0 0.00 0.00 0.00 61 1019.1
20260507063507 66 118 3.0 7.0 0.00 0.00 0.00 61 1019.2
20260507063019 66 116 4.0 7.0 0.00 0.00 0.00 63 1019.2
20260507062503 66 90 5.0 7.0 0.00 0.00 0.00 64 1019.2
20260507062003 66 91 4.0 6.0 0.00 0.00 0.00 65 1019.1
20260507061504 66 88 5.0 6.0 0.00 0.00 0.00 64 1019.1
20260507061003 67 113 3.0 6.0 0.00 0.00 0.00 60 1019.1
20260507060503 66 70 3.0 6.0 0.00 0.00 0.00 59 1019.0
20260507060005 67 111 3.0 5.0 0.00 0.00 0.00 60 1019.0
20260507055503 67 65 1.0 5.0 0.00 0.00 0.00 59 1019.1
20260507055006 66 53 2.0 5.0 0.00 0.00 0.00 58 1019.1
20260507054513 66 56 2.0 5.0 0.00 0.00 0.00 57 1019.0
20260507054004 67 49 1.0 5.0 0.00 0.00 0.00 60 1019.0
20260507053506 67 69 2.0 3.0 0.00 0.00 0.00 59 1019.0
20260507053017 67 132 1.0 3.0 0.00 0.00 0.00 62 1018.9
20260507052506 67 134 0.0 3.0 0.00 0.00 0.00 65 1018.9
20260507052009 67 68 0.0 3.0 0.00 0.00 0.00 63 1018.8
20260507051521 66 70 0.0 2.0 0.00 0.00 0.00 59 1018.8
20260507051007 65 37 0.0 2.0 0.00 0.00 0.00 61 1018.8
20260507050503 65 18 0.0 0.0 0.00 0.00 0.00 62 1018.8
20260507045510 62 359 0.0 1.0 0.00 0.00 0.00 65 1018.7
20260507045003 61 10 0.0 2.0 0.00 0.00 0.00 66 1018.7
20260507044546 60 309 0.0 2.0 0.00 0.00 0.00 67 1018.7
20260507043507 59 290 1.0 2.0 0.00 0.00 0.00 68 1018.5
20260507043040 58 290 1.0 2.0 0.00 0.00 0.00 68 1018.5
20260507042511 58 310 1.0 2.0 0.00 0.00 0.00 68 1018.5
20260507042012 58 311 1.0 2.0 0.00 0.00 0.00 68 1018.5
20260507041531 58 311 1.0 2.0 0.00 0.00 0.00 68 1018.5
20260507041006 58 330 0.0 2.0 0.00 0.00 0.00 69 1018.4
20260507040511 57 308 0.0 2.0 0.00 0.00 0.00 69 1018.4
20260507035516 57 305 2.0 4.0 0.00 0.00 0.00 69 1018.3
20260507035004 57 304 2.0 4.0 0.00 0.00 0.00 70 1018.4
20260507034010 56 294 3.0 4.0 0.00 0.00 0.00 71 1018.2
20260507033504 56 304 3.0 4.0 0.00 0.00 0.00 73 1018.2
20260507033032 56 299 3.0 4.0 0.00 0.00 0.00 74 1018.0
20260507032507 56 307 3.0 4.0 0.00 0.00 0.00 76 1018.1
20260507032006 55 302 3.0 4.0 0.00 0.00 0.00 78 1018.0
20260507031516 55 300 4.0 4.0 0.00 0.00 0.00 78 1017.9
20260507031011 55 303 3.0 4.0 0.00 0.00 0.00 78 1017.9
20260507030527 55 308 3.0 4.0 0.00 0.00 0.00 79 1018.0
20260507030056 56 302 2.0 3.0 0.00 0.00 0.00 78 1017.9
20260507025511 56 307 2.0 3.0 0.00 0.00 0.00 79 1017.9
20260507025011 56 307 2.0 3.0 0.00 0.00 0.00 79 1017.9
20260507024531 56 302 1.0 3.0 0.00 0.00 0.00 79 1017.8
20260507024007 56 306 3.0 3.0 0.00 0.00 0.00 79 1017.8
20260507023511 56 297 3.0 3.0 0.00 0.00 0.00 79 1017.8
20260507022504 56 307 1.0 4.0 0.00 0.00 0.00 78 1017.7
20260507022005 56 311 2.0 4.0 0.00 0.00 0.00 78 1017.7
20260507021514 57 306 2.0 3.0 0.00 0.00 0.00 79 1017.6
20260507021013 57 306 2.0 3.0 0.00 0.00 0.00 79 1017.6
20260507020514 57 307 1.0 2.0 0.00 0.00 0.00 79 1017.6
20260507020022 57 307 0.0 3.0 0.00 0.00 0.00 79 1017.5
20260507015509 57 310 0.0 3.0 0.00 0.00 0.00 79 1017.6
20260507015021 57 309 1.0 3.0 0.00 0.00 0.00 79 1017.5
20260507014527 57 314 1.0 4.0 0.00 0.00 0.00 79 1017.5
20260507014008 57 307 2.0 4.0 0.00 0.00 0.00 79 1017.5
20260507013518 57 316 1.0 3.0 0.00 0.00 0.00 78 1017.5
20260507013028 57 311 1.0 3.0 0.00 0.00 0.00 78 1017.5
20260507012507 57 314 2.0 5.0 0.00 0.00 0.00 78 1017.4
20260507011513 58 338 2.0 5.0 0.00 0.00 0.00 78 1017.4
20260507011008 58 287 2.0 3.0 0.00 0.00 0.00 78 1017.4
20260507010506 58 317 2.0 3.0 0.00 0.00 0.00 78 1017.5
20260507010028 58 316 2.0 5.0 0.00 0.00 0.00 78 1017.5
20260507005513 58 326 2.0 5.0 0.00 0.00 0.00 78 1017.4
20260507005006 58 328 2.0 3.0 0.00 0.00 0.00 78 1017.4
20260507004011 58 319 1.0 4.0 0.00 0.00 0.00 77 1017.4
20260507003511 58 323 2.0 4.0 0.00 0.00 0.00 77 1017.4
20260507003026 59 306 1.0 3.0 0.00 0.00 0.00 76 1017.4
20260507002514 59 307 1.0 3.0 0.00 0.00 0.00 76 1017.5
20260507002015 59 311 1.0 2.0 0.00 0.00 0.00 76 1017.5
20260507001531 59 319 1.0 3.0 0.00 0.00 0.00 76 1017.5
20260507001027 59 313 1.0 3.0 0.00 0.00 0.00 75 1017.5
20260507000506 59 301 1.0 3.0 0.00 0.00 0.00 75 1017.5
20260507000012 59 320 1.0 3.0 0.00 0.00 0.00 75 1017.5
20260506235507 59 306 1.0 4.0 0.00 0.00 0.00 75 1017.5
20260506235013 59 311 3.0 4.0 0.00 0.00 0.00 75 1017.5
20260506234517 59 330 2.0 4.0 0.00 0.00 0.00 75 1017.5
20260506234009 59 319 3.0 6.0 0.00 0.00 0.00 75 1017.5
20260506233510 59 297 3.0 6.0 0.00 0.00 0.00 75 1017.5
20260506233028 59 304 2.0 4.0 0.00 0.00 0.00 74 1017.5
20260506232628 59 311 2.0 4.0 0.00 0.00 0.00 74 1017.5
20260506232040 60 310 2.0 4.0 0.00 0.00 0.00 74 1017.5
20260506231529 60 323 2.0 4.0 0.00 0.00 0.00 74 1017.5
20260506231008 59 314 2.0 5.0 0.00 0.00 0.00 74 1017.6
20260506230510 59 315 3.0 5.0 0.00 0.00 0.00 74 1017.6
20260506224514 60 317 2.0 6.0 0.00 0.00 0.00 74 1017.6
20260506224007 60 306 3.0 6.0 0.00 0.00 0.00 74 1017.7
20260506223509 60 298 4.0 6.0 0.00 0.00 0.00 75 1017.7
20260506223019 60 294 3.0 7.0 0.00 0.00 0.00 75 1017.6
20260506222511 60 343 4.0 7.0 0.00 0.00 0.00 75 1017.6
20260506222009 60 314 5.0 9.0 0.00 0.00 0.00 75 1017.6
20260506221525 60 300 6.0 9.0 0.00 0.00 0.00 75 1017.7
20260506221008 60 313 5.0 8.0 0.00 0.00 0.00 75 1017.7
20260506220512 60 312 6.0 8.0 0.00 0.00 0.00 75 1017.7
20260506215013 60 321 5.0 8.0 0.00 0.00 0.00 74 1017.8
20260506214529 60 323 4.0 8.0 0.00 0.00 0.00 74 1017.8
20260506214026 60 303 5.0 7.0 0.00 0.00 0.00 73 1017.8
20260506213508 60 294 3.0 6.0 0.00 0.00 0.00 73 1017.8
20260506213028 60 313 3.0 7.0 0.00 0.00 0.00 73 1017.8
20260506212507 60 319 4.0 7.0 0.00 0.00 0.00 73 1017.7
20260506212013 60 321 5.0 7.0 0.00 0.00 0.00 73 1017.7
20260506211519 61 307 4.0 7.0 0.00 0.00 0.00 74 1017.7
20260506211013 61 302 5.0 9.0 0.00 0.00 0.00 74 1017.8
20260506210511 61 306 5.0 9.0 0.00 0.00 0.00 73 1017.7
20260506205507 61 297 5.0 8.0 0.00 0.00 0.00 73 1017.8
20260506205014 61 299 5.0 6.0 0.00 0.00 0.00 72 1017.8
20260506204530 61 288 4.0 6.0 0.00 0.00 0.00 72 1017.8
20260506204008 61 314 4.0 6.0 0.00 0.00 0.00 72 1017.7
20260506203510 61 308 3.0 8.0 0.00 0.00 0.00 72 1017.7
20260506203030 61 306 5.0 8.0 0.00 0.00 0.00 72 1017.8
20260506202505 61 307 4.0 7.0 0.00 0.00 0.00 72 1017.8
20260506202008 61 307 4.0 9.0 0.00 0.00 0.00 72 1017.8
20260506201528 61 303 4.0 9.0 0.00 0.00 0.00 72 1017.8
20260506201011 61 317 5.0 9.0 0.00 0.00 0.00 72 1017.9
20260506200510 61 302 4.0 7.0 0.00 0.00 0.00 72 1017.9
20260506200028 61 293 4.0 7.0 0.00 0.00 0.00 72 1017.9
20260506195016 61 311 2.0 5.0 0.00 0.00 0.00 72 1018.0
20260506194532 61 307 3.0 4.0 0.00 0.00 0.00 71 1018.0
20260506194017 61 304 3.0 6.0 0.00 0.00 0.00 71 1017.9
20260506193509 61 296 4.0 6.0 0.00 0.00 0.00 70 1017.9
20260506193027 61 294 4.0 6.0 0.00 0.00 0.00 70 1017.9